Simultaneous Nadir Overpasses (SNOs) Predictions

Prediction of SNOs between GOES-16 and NPP Satellite Orbit:

Table of predicted SNOs for the next 14.0 days since TLE Epoch: 10/1/2022
Index Date Time (GOES-16) GOES-16 Lat,Lon NPP Lat,Lon Distance(km) Time Diff (sec)
1 10/01/2022 18:17:52 -0.06, -75.20 0.49, -72.81 272.27 80
2 10/03/2022 06:37:00 0.05, -75.20 0.67, -78.08 328.23 80
3 10/04/2022 06:20:56 0.05, -75.20 -0.35, -73.55 188.50 80
4 10/05/2022 18:40:12 -0.04, -75.21 -0.85, -78.85 415.16 80
5 10/06/2022 18:24:08 -0.04, -75.22 0.17, -74.32 102.23 80
6 10/08/2022 06:43:16 0.03, -75.23 0.98, -79.60 496.42 80
7 10/09/2022 06:24:30 0.04, -75.25 0.02, -75.05 21.76 80
8 10/11/2022 18:27:42 -0.04, -75.29 -0.18, -75.83 61.90 80
9 10/12/2022 18:11:38 -0.04, -75.31 0.84, -71.30 456.65 80
10 10/14/2022 06:33:26 0.03, -75.33 0.30, -76.57 140.71 80
